Tracking 17140 objects as of 1-July-2015
HD Live streaming from Space Station

W75/ABS-1B (HOT BIRD 3)

Track W75/ABS-1B (HOT BIRD 3) now!
W75/ABS-1B (HOT BIRD 3) is classified as:


NORAD ID: 24931
Int'l Code: 1997-049A
Perigee: 35,095.4 km
Apogee: 35,277.3 km
Inclination: 5.1 °
Period: 1,405.2 minutes
Semi major axis: 41557 km
RCS: 15.8489 m2 (large)
Launch date: September 2, 1997
Source: European Telecommunications Satellite Organization (EUTE)

Cable programming; direct-to-home broadcasting; Europe, North Africa, 20 active channels
Your satellite tracking list
Your tracking list is empty





NASA's NSSDC Master Catalog

Two Line Element Set (TLE):
1 24931U 97049A   15180.64348207 -.00000003  00000-0  00000+0 0  9990
2 24931 005.0938 059.2821 0021882 314.5698 284.1363 01.02478018 65661

Source of the keplerian elements: AFSPC

N2YO: 253